Ellensburg, WA

1:39 PM PDT on April 28, 2017 (GMT -0700)
Bowers

Weather History for KELN - December, 2013

Change the Weather History Date:

Thursday, December 5, 2013

  Actual Average (KYKM) Record (KYKM)
Temperature  
Mean Temperature 16 °F -  
Max Temperature 23 °F 39 °F 58 °F (1991)
Min Temperature 10 °F 24 °F 1 °F (1984)
Degree Days  
Heating Degree Days 48    
Moisture  
Dew Point 7 °F    
Average Humidity 67    
Maximum Humidity 81    
Minimum Humidity 55    
Precipitation  
Precipitation 0.00 in - - ()
Sea Level Pressure  
Sea Level Pressure 30.32 in    
Wind  
Wind Speed 2 mph (ESE)    
Max Wind Speed 8 mph    
Max Gust Speed -    
Visibility 10 miles    
Events      
Averages and records for this station are not official NWS values.
T = Trace of Precipitation, MM = Missing Value Source: NWS Daily Summary

Daily Weather History Graph

Daily Weather History Graph

Search for Another Location

Airport or City:

Trip Planner

Search our weather history database for the weather conditions in past years. The results will help you decide how hot, cold, wet, or windy it might be!

Date:

Astronomy

Dec. 05, 2013 Rise Set
Actual Time 7:32 AM PST 4:13 PM PST
Civil Twilight 6:57 AM PST 4:48 PM PST
Nautical Twilight 6:18 AM PST 5:26 PM PST
Astronomical Twilight 5:41 AM PST 6:03 PM PST
Moon 9:50 AM PST (12/5) 7:47 PM PST (12/5)
Length of Visible Light 9h 51m
Length of Day
8h 41m
Waxing Crescent, 11% of the Moon is Illuminated
Dec 5
Waxing Crescent
Dec 9
First Quarter
Dec 17
Full
Dec 25
Last Quarter
Jan 1
New

Hourly Weather History & Observations

Time (PST) Temp. Windchill Dew Point Humidity Pressure Visibility Wind Dir Wind Speed Gust Speed Precip Events Conditions
12:53 AM 15.1 °F - 8.1 °F 74% 30.34 in 10.0 mi Calm Calm - N/A   Clear
1:53 AM 12.9 °F - 7.0 °F 77% 30.35 in 10.0 mi Calm Calm - N/A   Clear
2:53 AM 10.0 °F - 3.9 °F 76% 30.35 in 10.0 mi Calm Calm - N/A   Clear
3:53 AM 10.9 °F - 6.1 °F 81% 30.34 in 10.0 mi Calm Calm - N/A   Clear
4:53 AM 10.9 °F - 6.1 °F 81% 30.33 in 10.0 mi Calm Calm - N/A   Clear
5:53 AM 12.0 °F - 6.1 °F 77% 30.33 in 10.0 mi Calm Calm - N/A   Overcast
6:53 AM 10.9 °F - 5.0 °F 77% 30.33 in 10.0 mi Calm Calm - N/A   Clear
7:53 AM 10.0 °F - 3.9 °F 76% 30.34 in 10.0 mi Calm Calm - N/A   Mostly Cloudy
8:53 AM 16.0 °F 10.4 °F 8.1 °F 71% 30.35 in 10.0 mi East 3.5 mph - N/A   Clear
9:53 AM 17.1 °F - 10.0 °F 74% 30.34 in 10.0 mi Calm Calm - N/A   Mostly Cloudy
10:53 AM 19.0 °F - 10.0 °F 68% 30.35 in 10.0 mi Calm Calm - N/A   Overcast
11:53 AM 21.0 °F - 9.0 °F 60% 30.32 in 10.0 mi Calm Calm - N/A   Scattered Clouds
12:53 PM 23.0 °F 17.0 °F 9.0 °F 55% 30.30 in 10.0 mi South 4.6 mph - N/A   Mostly Cloudy
1:53 PM 23.0 °F 18.4 °F 9.0 °F 55% 30.29 in 10.0 mi ESE 3.5 mph - N/A   Mostly Cloudy
2:53 PM 21.9 °F 12.5 °F 8.1 °F 55% 30.29 in 10.0 mi ESE 8.1 mph - N/A   Overcast
3:53 PM 19.9 °F 10.1 °F 7.0 °F 57% 30.30 in 10.0 mi ESE 8.1 mph - N/A   Overcast
4:53 PM 19.0 °F 9.0 °F 6.1 °F 57% 30.30 in 10.0 mi SE 8.1 mph - N/A   Overcast
5:53 PM 19.0 °F 10.0 °F 7.0 °F 59% 30.30 in 10.0 mi SSE 6.9 mph - N/A   Overcast
6:53 PM 19.0 °F 10.0 °F 7.0 °F 59% 30.31 in 10.0 mi South 6.9 mph - N/A   Overcast
7:53 PM 19.0 °F - 7.0 °F 59% 30.32 in 10.0 mi Calm Calm - N/A   Overcast
8:53 PM 19.0 °F 13.9 °F 8.1 °F 62% 30.31 in 10.0 mi North 3.5 mph - N/A   Overcast
9:53 PM 17.1 °F - 7.0 °F 65% 30.32 in 10.0 mi Calm Calm - N/A   Mostly Cloudy
10:53 PM 12.0 °F 0.5 °F 3.9 °F 70% 30.32 in 10.0 mi ENE 8.1 mph - N/A   Partly Cloudy
11:53 PM 12.9 °F 3.8 °F 5.0 °F 71% 30.31 in 10.0 mi NE 5.8 mph - N/A   Scattered Clouds